This demonstration page uses our WeatherBlox Daily Observations layout. Learn more.

Hourly Observations for February 1, 2017

Temp ( °F °C ) Dew Point ( °F °C ) Humidity (%) Winds ( mph kmh ) Pressure ( in mb ) Visibility ( mi km ) Precip ( " mm )
12:15 am 00:15 Clear 41 5 32 0 70 70 WNW 10 17 29.94 1014 10 16.09344 0 0
12:35 am 00:35 Clear 45 7 30 -1 57 57 WNW 15 24 29.94 1014 10 16.09344 0 0
12:55 am 00:55 Clear 43 6 30 -1 61 61 NW 9 15 29.94 1014 10 16.09344 0 0
1:15 am 01:15 Clear 41 5 30 -1 66 66 WNW 9 15 29.94 1014 10 16.09344 0 0
1:35 am 01:35 Clear 41 5 30 -1 66 66 NW 7 11 29.94 1014 10 16.09344 0 0
1:55 am 01:55 Clear 37 3 30 -1 75 75 WNW 6 9 29.97 1015 10 16.09344 0 0
2:15 am 02:15 Clear 37 3 30 -1 75 75 WNW 5 7 29.97 1015 10 16.09344 0 0
2:35 am 02:35 Clear 36 2 28 -2 75 75 WNW 8 13 29.97 1015 10 16.09344 0 0
2:55 am 02:55 Clear 41 5 30 -1 66 66 undefined N/A 29.97 1015 10 16.09344 0 0
3:15 am 03:15 Clear 43 6 32 0 66 66 WNW 14 22 30 1016 10 16.09344 0 0
3:35 am 03:35 Clear 45 7 32 0 61 61 WNW 14 22 29.97 1015 10 16.09344 0 0
3:55 am 03:55 Clear 45 7 30 -1 57 57 NW 16 26 29.97 1015 10 16.09344 0 0
4:15 am 04:15 Clear 45 7 30 -1 57 57 NW 16 26 29.97 1015 10 16.09344 0 0
4:35 am 04:35 Clear 45 7 30 -1 57 57 NW 17 28 30 1016 10 16.09344 0 0
4:55 am 04:55 Clear 45 7 30 -1 57 57 NW 13 20 30 1016 10 16.09344 0 0
5:15 am 05:15 Clear 45 7 30 -1 57 57 WNW 9 15 30 1016 10 16.09344 0 0
5:35 am 05:35 Partly Cloudy 43 6 30 -1 61 61 WNW 8 13 30 1016 10 16.09344 0 0
5:55 am 05:55 Partly Cloudy 45 7 30 -1 57 57 W 5 7 30 1016 10 16.09344 0 0
6:15 am 06:15 Partly Cloudy 43 6 30 -1 61 61 Calm 30 1016 10 16.09344 0 0
6:35 am 06:35 Cloudy 45 7 30 -1 57 57 WNW 14 22 30 1016 10 16.09344 0 0
6:55 am 06:55 Cloudy 45 7 30 -1 57 57 NW 12 19 30.03 1017 10 16.09344 0 0
7:15 am 07:15 Cloudy 45 7 30 -1 57 57 NW 12 19 30.03 1017 10 16.09344 0 0
7:35 am 07:35 Partly Cloudy 43 6 30 -1 61 61 NW 9 15 30.03 1017 10 16.09344 0 0
7:55 am 07:55 Mostly Cloudy 43 6 30 -1 61 61 NNW 8 13 30.03 1017 10 16.09344 0 0
8:15 am 08:15 Cloudy 45 7 32 0 61 61 NW 7 11 30.03 1017 10 16.09344 0 0
8:35 am 08:35 Cloudy 45 7 32 0 61 61 W 3 6 30.03 1017 10 16.09344 0 0
8:55 am 08:55 Cloudy 45 7 32 0 61 61 W 6 9 30.06 1018 10 16.09344 0 0
9:15 am 09:15 Cloudy 45 7 32 0 61 61 WNW 3 6 30.06 1018 10 16.09344 0 0
9:35 am 09:35 Cloudy 45 7 32 0 61 61 WNW 5 7 30.06 1018 10 16.09344 0 0
9:55 am 09:55 Cloudy 45 7 32 0 61 61 WNW 7 11 30.06 1018 10 16.09344 0 0
10:15 am 10:15 Cloudy 45 7 32 0 61 61 W 3 6 30.06 1018 10 16.09344 0 0
10:35 am 10:35 Cloudy 45 7 32 0 61 61 Calm 30.06 1018 10 16.09344 0 0
10:55 am 10:55 Cloudy 46 8 32 0 57 57 W 5 7 30.06 1018 10 16.09344 0 0
11:15 am 11:15 Cloudy 46 8 32 0 57 57 WSW 5 7 30.06 1018 10 16.09344 0 0
11:35 am 11:35 Cloudy 46 8 32 0 57 57 W 3 6 30.03 1017 10 16.09344 0 0
11:55 am 11:55 Cloudy 48 9 32 0 54 54 WNW 12 19 30.03 1017 10 16.09344 0 0
12:15 pm 12:15 Cloudy 50 10 32 0 50 50 W 12 19 30 1016 10 16.09344 0 0
12:35 pm 12:35 Cloudy 50 10 32 0 50 50 NW 8 13 30 1016 10 16.09344 0 0
12:55 pm 12:55 Cloudy 50 10 32 0 50 50 WNW 9 15 29.97 1015 10 16.09344 0 0
1:15 pm 13:15 Cloudy 50 10 32 0 50 50 W 7 11 29.97 1015 10 16.09344 0 0
1:35 pm 13:35 Cloudy 50 10 32 0 50 50 SW 3 6 29.97 1015 10 16.09344 0 0
1:55 pm 13:55 Cloudy 50 10 34 1 54 54 WSW 3 6 29.97 1015 10 16.09344 0 0
2:15 pm 14:15 Cloudy 50 10 34 1 54 54 W 7 11 29.97 1015 10 16.09344 0 0
2:35 pm 14:35 Cloudy 52 11 34 1 50 50 W 7 11 29.97 1015 10 16.09344 0 0
2:55 pm 14:55 Mostly Cloudy 52 11 34 1 50 50 NW 9 15 29.97 1015 10 16.09344 0 0
3:15 pm 15:15 Partly Cloudy 54 12 34 1 47 47 WNW 8 13 29.97 1015 10 16.09344 0 0
3:35 pm 15:35 Sunny 52 11 34 1 50 50 WNW 10 17 29.97 1015 10 16.09344 0 0
3:55 pm 15:55 Sunny 52 11 34 1 50 50 WNW 9 15 29.97 1015 10 16.09344 0 0
4:15 pm 16:15 Mostly Cloudy 52 11 34 1 50 50 NW 10 17 30 1016 10 16.09344 0 0
4:35 pm 16:35 Cloudy 50 10 34 1 54 54 NNW 15 24 30 1016 10 16.09344 0 0
4:55 pm 16:55 Cloudy 50 10 34 1 54 54 NNW 14 22 30.03 1017 10 16.09344 0 0
5:15 pm 17:15 Cloudy 48 9 34 1 58 58 NNW 10 17 30.06 1018 10 16.09344 0 0
5:35 pm 17:35 Cloudy 46 8 34 1 62 62 NW 8 13 30.09 1019 10 16.09344 0 0
5:55 pm 17:55 Cloudy 46 8 34 1 62 62 NW 6 9 30.09 1019 10 16.09344 0 0
6:15 pm 18:15 Cloudy 46 8 34 1 62 62 WSW 3 6 30.09 1019 10 16.09344 0 0
6:35 pm 18:35 Cloudy 46 8 34 1 62 62 Calm 30.09 1019 10 16.09344 0 0
6:55 pm 18:55 Clear 48 9 30 -1 50 50 NNW 9 15 29.83 1010 10 16.09344 0 0
7:15 pm 19:15 Cloudy 45 7 34 1 66 66 N 3 6 30.09 1019 10 16.09344 0 0
7:35 pm 19:35 Cloudy 45 7 34 1 66 66 N 3 6 30.12 1020 10 16.09344 0 0
7:55 pm 19:55 Cloudy 45 7 34 1 66 66 Calm 30.12 1020 10 16.09344 0 0
8:15 pm 20:15 Mostly Cloudy 45 7 34 1 66 66 undefined N/A 30.12 1020 10 16.09344 0 0
8:35 pm 20:35 Mostly Cloudy 45 7 34 1 66 66 Calm 30.12 1020 10 16.09344 0 0
8:55 pm 20:55 Mostly Cloudy 43 6 34 1 71 71 Calm 30.12 1020 10 16.09344 0 0
9:15 pm 21:15 Mostly Cloudy 45 7 32 0 61 61 N 3 6 30.12 1020 10 16.09344 0 0
9:35 pm 21:35 Mostly Cloudy 45 7 32 0 61 61 undefined N/A 30.12 1020 10 16.09344 0 0
9:55 pm 21:55 Partly Cloudy 43 6 32 0 66 66 N 6 9 30.12 1020 10 16.09344 0 0
10:15 pm 22:15 Clear 43 6 34 1 71 71 N 6 9 30.09 1019 10 16.09344 0 0
10:35 pm 22:35 Partly Cloudy 43 6 32 0 66 66 N 8 13 30.09 1019 10 16.09344 0 0
10:55 pm 22:55 Mostly Cloudy 43 6 34 1 71 71 N 8 13 30.12 1020 10 16.09344 0 0
11:15 pm 23:15 Mostly Cloudy 43 6 34 1 71 71 N 10 17 30.09 1019 10 16.09344 0 0
11:35 pm 23:35 Cloudy 43 6 34 1 71 71 N 12 19 30.09 1019 10 16.09344 0 0
11:55 pm 23:55 Partly Cloudy 43 6 34 1 71 71 NNW 9 15 30.09 1019 10 16.09344 0 0

Powered by AerisWeather